Starlink 5679

operational
NORAD ID: 55467 Int'l Des: 2023-015 Owner: SPXS Country: US Constellation: starlink
LEOCIRCULAR

关于 Starlink 5679

正在加载描述...

实时位置

正在加载3D地球...

即将过境

高度历史

Altitude vs Time

uPlot chart will show altitude changes over time

两行轨道根数

1 55467U 23015U 25302.32630117 .00000442 00000-0 47806-4 0 9992
2 55467 43.0033 319.7733 0001203 269.7348 90.3356 15.02538456150999
Epoch: Oct 29, 2025 • Age: 55 hours

当前状态

高度 560.1 km
速度 7.59 km/s
星下点 28.46°N, 168.3°W
发射日期 Feb 2, 2023
运行时间 2.7 years
类型 internet

技术详情

分类 Payload
质量 305.00 kg
干质量 290.00 kg
总质量 305.00 kg
长度 0.20 m
直径 2.80 m
跨度 9.00 m
形状 Box + pan
制造商 SPXS
平台类型 Starlink
阶段状态 In Orbit
所有者/国家 SPXS/US

大型星座

Loading constellations...